#datetime,building,power
2023-06-28T00:00:00,thc,4.42
2023-06-28T00:01:00,thc,4.39
2023-06-28T00:02:00,thc,4.37
2023-06-28T00:03:00,thc,4.44
2023-06-28T00:04:00,thc,4.43
2023-06-28T00:05:00,thc,4.40
2023-06-28T00:06:00,thc,4.38
2023-06-28T00:07:00,thc,5.97
2023-06-28T00:08:00,thc,5.93
2023-06-28T00:09:00,thc,6.00
2023-06-28T00:10:00,thc,6.01
2023-06-28T00:11:00,thc,6.01
2023-06-28T00:12:00,thc,8.04
2023-06-28T00:13:00,thc,6.45
2023-06-28T00:14:00,thc,6.44
2023-06-28T00:15:00,thc,6.47
2023-06-28T00:16:00,thc,6.46
2023-06-28T00:17:00,thc,4.35
2023-06-28T00:18:00,thc,4.34
2023-06-28T00:19:00,thc,4.43
2023-06-28T00:20:00,thc,4.29
2023-06-28T00:21:00,thc,4.29
2023-06-28T00:22:00,thc,4.30
2023-06-28T00:23:00,thc,4.28
2023-06-28T00:24:00,thc,4.27
2023-06-28T00:25:00,thc,4.27
2023-06-28T00:26:00,thc,4.25
2023-06-28T00:27:00,thc,4.25
2023-06-28T00:28:00,thc,4.28
2023-06-28T00:29:00,thc,4.19
2023-06-28T00:30:00,thc,4.20
2023-06-28T00:31:00,thc,4.20
2023-06-28T00:32:00,thc,4.55
2023-06-28T00:33:00,thc,4.33
2023-06-28T00:34:00,thc,4.42
2023-06-28T00:35:00,thc,4.40
2023-06-28T00:36:00,thc,4.31
2023-06-28T00:37:00,thc,4.34
2023-06-28T00:38:00,thc,4.33
2023-06-28T00:39:00,thc,4.38
2023-06-28T00:40:00,thc,4.39
2023-06-28T00:41:00,thc,4.37
2023-06-28T00:42:00,thc,4.33
2023-06-28T00:43:00,thc,4.33
2023-06-28T00:44:00,thc,4.29
2023-06-28T00:45:00,thc,4.27
2023-06-28T00:46:00,thc,4.26
2023-06-28T00:47:00,thc,4.24
2023-06-28T00:48:00,thc,4.19
2023-06-28T00:49:00,thc,4.21
2023-06-28T00:50:00,thc,4.20
2023-06-28T00:51:00,thc,4.46
2023-06-28T00:52:00,thc,4.29
2023-06-28T00:53:00,thc,4.27
2023-06-28T00:54:00,thc,4.25
2023-06-28T00:55:00,thc,4.23
2023-06-28T00:56:00,thc,4.22
2023-06-28T00:57:00,thc,4.21
2023-06-28T00:58:00,thc,4.21
2023-06-28T00:59:00,thc,4.20
2023-06-28T01:00:00,thc,4.21
2023-06-28T01:01:00,thc,4.34
2023-06-28T01:02:00,thc,4.22
2023-06-28T01:03:00,thc,4.21
2023-06-28T01:04:00,thc,4.20
2023-06-28T01:05:00,thc,4.20
2023-06-28T01:06:00,thc,4.21
2023-06-28T01:07:00,thc,4.20
2023-06-28T01:08:00,thc,4.10
2023-06-28T01:09:00,thc,4.11
2023-06-28T01:10:00,thc,4.16
2023-06-28T01:11:00,thc,4.19
2023-06-28T01:12:00,thc,4.18
2023-06-28T01:13:00,thc,4.29
2023-06-28T01:14:00,thc,4.23
2023-06-28T01:15:00,thc,4.45
2023-06-28T01:16:00,thc,7.17
2023-06-28T01:17:00,thc,6.90
2023-06-28T01:18:00,thc,9.78
2023-06-28T01:19:00,thc,9.48
2023-06-28T01:20:00,thc,9.47
2023-06-28T01:21:00,thc,6.92
2023-06-28T01:22:00,thc,6.90
2023-06-28T01:23:00,thc,4.17
2023-06-28T01:24:00,thc,4.17
2023-06-28T01:25:00,thc,4.17
2023-06-28T01:26:00,thc,4.17
2023-06-28T01:27:00,thc,4.17
2023-06-28T01:28:00,thc,4.07
2023-06-28T01:29:00,thc,4.07
2023-06-28T01:30:00,thc,3.96
2023-06-28T01:31:00,thc,3.95
2023-06-28T01:32:00,thc,3.96
2023-06-28T01:33:00,thc,3.95
2023-06-28T01:34:00,thc,3.94
2023-06-28T01:35:00,thc,3.95
2023-06-28T01:36:00,thc,3.94
2023-06-28T01:37:00,thc,3.94
2023-06-28T01:38:00,thc,3.94
2023-06-28T01:39:00,thc,3.94
2023-06-28T01:40:00,thc,3.94
2023-06-28T01:41:00,thc,3.94
2023-06-28T01:42:00,thc,3.94
2023-06-28T01:43:00,thc,3.93
2023-06-28T01:44:00,thc,3.93
2023-06-28T01:45:00,thc,3.93
2023-06-28T01:46:00,thc,3.92
2023-06-28T01:47:00,thc,4.05
2023-06-28T01:48:00,thc,4.04
2023-06-28T01:49:00,thc,4.04
2023-06-28T01:50:00,thc,4.03
2023-06-28T01:51:00,thc,4.03
2023-06-28T01:52:00,thc,4.02
2023-06-28T01:53:00,thc,4.03
2023-06-28T01:54:00,thc,4.02
2023-06-28T01:55:00,thc,4.23
2023-06-28T01:56:00,thc,4.03
2023-06-28T01:57:00,thc,4.01
2023-06-28T01:58:00,thc,4.13
2023-06-28T01:59:00,thc,4.12
2023-06-28T02:00:00,thc,4.11
2023-06-28T02:01:00,thc,4.12
2023-06-28T02:02:00,thc,4.17
2023-06-28T02:03:00,thc,4.17
2023-06-28T02:04:00,thc,4.17
2023-06-28T02:05:00,thc,4.40
2023-06-28T02:06:00,thc,4.20
2023-06-28T02:07:00,thc,4.44
2023-06-28T02:08:00,thc,4.42
2023-06-28T02:09:00,thc,4.39
2023-06-28T02:10:00,thc,4.40
2023-06-28T02:11:00,thc,4.29
2023-06-28T02:12:00,thc,4.29
2023-06-28T02:13:00,thc,4.27
2023-06-28T02:14:00,thc,4.28
2023-06-28T02:15:00,thc,4.31
2023-06-28T02:16:00,thc,4.31
2023-06-28T02:17:00,thc,4.32
2023-06-28T02:18:00,thc,4.30
2023-06-28T02:19:00,thc,4.30
2023-06-28T02:20:00,thc,4.30
2023-06-28T02:21:00,thc,4.35
2023-06-28T02:22:00,thc,4.25
2023-06-28T02:23:00,thc,4.22
2023-06-28T02:24:00,thc,4.22
2023-06-28T02:25:00,thc,4.25
2023-06-28T02:26:00,thc,4.23
2023-06-28T02:27:00,thc,6.14
2023-06-28T02:28:00,thc,6.18
2023-06-28T02:29:00,thc,6.16
2023-06-28T02:30:00,thc,6.16
2023-06-28T02:31:00,thc,6.38
2023-06-28T02:32:00,thc,4.32
2023-06-28T02:33:00,thc,4.21
2023-06-28T02:34:00,thc,4.20
2023-06-28T02:35:00,thc,4.07
2023-06-28T02:36:00,thc,4.12
2023-06-28T02:37:00,thc,3.89
2023-06-28T02:38:00,thc,3.88
2023-06-28T02:39:00,thc,3.86
2023-06-28T02:40:00,thc,3.85
2023-06-28T02:41:00,thc,4.09
2023-06-28T02:42:00,thc,3.89
2023-06-28T02:43:00,thc,3.88
2023-06-28T02:44:00,thc,3.89
2023-06-28T02:45:00,thc,3.86
2023-06-28T02:46:00,thc,3.87
2023-06-28T02:47:00,thc,3.86
2023-06-28T02:48:00,thc,3.87
2023-06-28T02:49:00,thc,3.86
2023-06-28T02:50:00,thc,3.87
2023-06-28T02:51:00,thc,3.86
2023-06-28T02:52:00,thc,3.86
2023-06-28T02:53:00,thc,4.26
2023-06-28T02:54:00,thc,4.25
2023-06-28T02:55:00,thc,4.25
2023-06-28T02:56:00,thc,4.24
2023-06-28T02:57:00,thc,4.24
2023-06-28T02:58:00,thc,4.24
2023-06-28T02:59:00,thc,4.23
2023-06-28T03:00:00,thc,4.36
2023-06-28T03:01:00,thc,3.96
2023-06-28T03:02:00,thc,3.96
2023-06-28T03:03:00,thc,6.03
2023-06-28T03:04:00,thc,6.19
2023-06-28T03:05:00,thc,6.21
2023-06-28T03:06:00,thc,6.20
2023-06-28T03:07:00,thc,6.63
2023-06-28T03:08:00,thc,4.52
2023-06-28T03:09:00,thc,4.29
2023-06-28T03:10:00,thc,4.31
2023-06-28T03:11:00,thc,4.32
2023-06-28T03:12:00,thc,4.10
2023-06-28T03:13:00,thc,4.09
2023-06-28T03:14:00,thc,4.22
2023-06-28T03:15:00,thc,4.10
2023-06-28T03:16:00,thc,4.32
2023-06-28T03:17:00,thc,4.11
2023-06-28T03:18:00,thc,4.09
2023-06-28T03:19:00,thc,4.10
2023-06-28T03:20:00,thc,4.10
2023-06-28T03:21:00,thc,4.09
2023-06-28T03:22:00,thc,4.09
2023-06-28T03:23:00,thc,4.21
2023-06-28T03:24:00,thc,4.19
2023-06-28T03:25:00,thc,4.19
2023-06-28T03:26:00,thc,4.19
2023-06-28T03:27:00,thc,4.19
2023-06-28T03:28:00,thc,4.19
2023-06-28T03:29:00,thc,4.19
2023-06-28T03:30:00,thc,4.18
2023-06-28T03:31:00,thc,4.18
2023-06-28T03:32:00,thc,4.18
2023-06-28T03:33:00,thc,4.18
2023-06-28T03:34:00,thc,4.18
2023-06-28T03:35:00,thc,4.19
2023-06-28T03:36:00,thc,4.19
2023-06-28T03:37:00,thc,4.18
2023-06-28T03:38:00,thc,4.18
2023-06-28T03:39:00,thc,4.41
2023-06-28T03:40:00,thc,4.42
2023-06-28T03:41:00,thc,4.41
2023-06-28T03:42:00,thc,4.31
2023-06-28T03:43:00,thc,4.31
2023-06-28T03:44:00,thc,4.10
2023-06-28T03:45:00,thc,4.08
2023-06-28T03:46:00,thc,4.07
2023-06-28T03:47:00,thc,4.07
2023-06-28T03:48:00,thc,4.07
2023-06-28T03:49:00,thc,4.06
2023-06-28T03:50:00,thc,4.06
2023-06-28T03:51:00,thc,4.05
2023-06-28T03:52:00,thc,4.17
2023-06-28T03:53:00,thc,4.16
2023-06-28T03:54:00,thc,4.16
2023-06-28T03:55:00,thc,4.06
2023-06-28T03:56:00,thc,4.06
2023-06-28T03:57:00,thc,4.27
2023-06-28T03:58:00,thc,3.96
2023-06-28T03:59:00,thc,3.96
2023-06-28T04:00:00,thc,3.95
2023-06-28T04:01:00,thc,3.95
2023-06-28T04:02:00,thc,3.96
2023-06-28T04:03:00,thc,3.95
2023-06-28T04:04:00,thc,3.96
2023-06-28T04:05:00,thc,3.95
2023-06-28T04:06:00,thc,3.95
2023-06-28T04:07:00,thc,3.85
2023-06-28T04:08:00,thc,3.85
2023-06-28T04:09:00,thc,3.84
2023-06-28T04:10:00,thc,3.84
2023-06-28T04:11:00,thc,4.06
2023-06-28T04:12:00,thc,3.87
2023-06-28T04:13:00,thc,3.87
2023-06-28T04:14:00,thc,3.86
2023-06-28T04:15:00,thc,3.85
2023-06-28T04:16:00,thc,3.85
2023-06-28T04:17:00,thc,3.84
2023-06-28T04:18:00,thc,3.84
2023-06-28T04:19:00,thc,3.84
2023-06-28T04:20:00,thc,4.00
2023-06-28T04:21:00,thc,3.99
2023-06-28T04:22:00,thc,3.99
2023-06-28T04:23:00,thc,4.07
2023-06-28T04:24:00,thc,4.00
2023-06-28T04:25:00,thc,4.00
2023-06-28T04:26:00,thc,4.00
2023-06-28T04:27:00,thc,3.99
2023-06-28T04:28:00,thc,4.00
2023-06-28T04:29:00,thc,3.99
2023-06-28T04:30:00,thc,4.00
2023-06-28T04:31:00,thc,3.99
2023-06-28T04:32:00,thc,3.99
2023-06-28T04:33:00,thc,4.00
2023-06-28T04:34:00,thc,3.96
2023-06-28T04:35:00,thc,3.96
2023-06-28T04:36:00,thc,3.95
2023-06-28T04:37:00,thc,6.95
2023-06-28T04:38:00,thc,6.91
2023-06-28T04:39:00,thc,6.52
2023-06-28T04:40:00,thc,6.49
2023-06-28T04:41:00,thc,6.49
2023-06-28T04:42:00,thc,4.08
2023-06-28T04:43:00,thc,4.08
2023-06-28T04:44:00,thc,4.06
2023-06-28T04:45:00,thc,4.21
2023-06-28T04:46:00,thc,4.20
2023-06-28T04:47:00,thc,4.20
2023-06-28T04:48:00,thc,4.22
2023-06-28T04:49:00,thc,4.20
2023-06-28T04:50:00,thc,4.19
2023-06-28T04:51:00,thc,4.19
2023-06-28T04:52:00,thc,4.20
2023-06-28T04:53:00,thc,4.19
2023-06-28T04:54:00,thc,4.19
2023-06-28T04:55:00,thc,4.19
2023-06-28T04:56:00,thc,4.19
2023-06-28T04:57:00,thc,4.18
2023-06-28T04:58:00,thc,4.21
2023-06-28T04:59:00,thc,4.11
2023-06-28T05:00:00,thc,4.10
2023-06-28T05:01:00,thc,4.11
2023-06-28T05:02:00,thc,4.21
2023-06-28T05:03:00,thc,4.20
2023-06-28T05:04:00,thc,4.11
2023-06-28T05:05:00,thc,4.09
2023-06-28T05:06:00,thc,4.11
2023-06-28T05:07:00,thc,4.16
2023-06-28T05:08:00,thc,4.14
2023-06-28T05:09:00,thc,4.12
2023-06-28T05:10:00,thc,4.13
2023-06-28T05:11:00,thc,4.12
2023-06-28T05:12:00,thc,4.12
2023-06-28T05:13:00,thc,4.14
2023-06-28T05:14:00,thc,4.12
2023-06-28T05:15:00,thc,4.13
2023-06-28T05:16:00,thc,4.10
2023-06-28T05:17:00,thc,4.11
2023-06-28T05:18:00,thc,4.33
2023-06-28T05:19:00,thc,4.13
2023-06-28T05:20:00,thc,4.11
2023-06-28T05:21:00,thc,4.11
2023-06-28T05:22:00,thc,4.10
2023-06-28T05:23:00,thc,4.02
2023-06-28T05:24:00,thc,4.15
2023-06-28T05:25:00,thc,4.21
2023-06-28T05:26:00,thc,4.18
2023-06-28T05:27:00,thc,6.11
2023-06-28T05:28:00,thc,7.87
2023-06-28T05:29:00,thc,6.17
2023-06-28T05:30:00,thc,6.13
2023-06-28T05:31:00,thc,4.22
2023-06-28T05:32:00,thc,4.18
2023-06-28T05:33:00,thc,4.15
2023-06-28T05:34:00,thc,4.15
2023-06-28T05:35:00,thc,4.14
2023-06-28T05:36:00,thc,4.13
2023-06-28T05:37:00,thc,4.24
2023-06-28T05:38:00,thc,4.44
2023-06-28T05:39:00,thc,4.24
2023-06-28T05:40:00,thc,4.25
2023-06-28T05:41:00,thc,4.32
2023-06-28T05:42:00,thc,4.25
2023-06-28T05:43:00,thc,4.24
2023-06-28T05:44:00,thc,4.23
2023-06-28T05:45:00,thc,4.24
2023-06-28T05:46:00,thc,4.37
2023-06-28T05:47:00,thc,4.36
2023-06-28T05:48:00,thc,4.35
2023-06-28T05:49:00,thc,4.35
2023-06-28T05:50:00,thc,4.35
2023-06-28T05:51:00,thc,4.23
2023-06-28T05:52:00,thc,4.11
2023-06-28T05:53:00,thc,4.11
2023-06-28T05:54:00,thc,4.11
2023-06-28T05:55:00,thc,4.11
2023-06-28T05:56:00,thc,4.10
2023-06-28T05:57:00,thc,4.10
2023-06-28T05:58:00,thc,4.30
2023-06-28T05:59:00,thc,4.31
2023-06-28T06:00:00,thc,4.10
2023-06-28T06:01:00,thc,4.25
2023-06-28T06:02:00,thc,4.39
2023-06-28T06:03:00,thc,4.29
2023-06-28T06:04:00,thc,4.25
2023-06-28T06:05:00,thc,4.25
2023-06-28T06:06:00,thc,4.19
2023-06-28T06:07:00,thc,4.16
2023-06-28T06:08:00,thc,4.16
2023-06-28T06:09:00,thc,4.07
2023-06-28T06:10:00,thc,4.14
2023-06-28T06:11:00,thc,4.14
2023-06-28T06:12:00,thc,4.14
2023-06-28T06:13:00,thc,4.25
2023-06-28T06:14:00,thc,4.40
2023-06-28T06:15:00,thc,4.36
2023-06-28T06:16:00,thc,4.31
2023-06-28T06:17:00,thc,4.35
2023-06-28T06:18:00,thc,4.33
2023-06-28T06:19:00,thc,4.33
2023-06-28T06:20:00,thc,4.33
2023-06-28T06:21:00,thc,4.41
2023-06-28T06:22:00,thc,4.55
2023-06-28T06:23:00,thc,4.40
2023-06-28T06:24:00,thc,4.37
2023-06-28T06:25:00,thc,4.45
2023-06-28T06:26:00,thc,4.35
2023-06-28T06:27:00,thc,4.38
2023-06-28T06:28:00,thc,4.50
2023-06-28T06:29:00,thc,4.58
2023-06-28T06:30:00,thc,4.70
2023-06-28T06:31:00,thc,4.71
2023-06-28T06:32:00,thc,4.70
2023-06-28T06:33:00,thc,4.81
2023-06-28T06:34:00,thc,4.68
2023-06-28T06:35:00,thc,4.60
2023-06-28T06:36:00,thc,4.65
2023-06-28T06:37:00,thc,4.62
2023-06-28T06:38:00,thc,4.63
2023-06-28T06:39:00,thc,4.94
2023-06-28T06:40:00,thc,5.05
2023-06-28T06:41:00,thc,5.21
2023-06-28T06:42:00,thc,5.07
2023-06-28T06:43:00,thc,5.06
2023-06-28T06:44:00,thc,4.70
2023-06-28T06:45:00,thc,4.69
2023-06-28T06:46:00,thc,4.52
2023-06-28T06:47:00,thc,4.54
2023-06-28T06:48:00,thc,4.50
2023-06-28T06:49:00,thc,4.44
2023-06-28T06:50:00,thc,4.53
2023-06-28T06:51:00,thc,4.53
2023-06-28T06:52:00,thc,5.05
2023-06-28T06:53:00,thc,4.72
2023-06-28T06:54:00,thc,4.67
2023-06-28T06:55:00,thc,4.59
2023-06-28T06:56:00,thc,4.56
2023-06-28T06:57:00,thc,4.60
2023-06-28T06:58:00,thc,6.06
2023-06-28T06:59:00,thc,6.19
2023-06-28T07:00:00,thc,4.71
2023-06-28T07:01:00,thc,4.61
2023-06-28T07:02:00,thc,4.63
2023-06-28T07:03:00,thc,4.58
2023-06-28T07:04:00,thc,4.57
2023-06-28T07:05:00,thc,4.58
2023-06-28T07:06:00,thc,4.44
2023-06-28T07:07:00,thc,4.44
2023-06-28T07:08:00,thc,4.42
2023-06-28T07:09:00,thc,7.43
2023-06-28T07:10:00,thc,8.12
2023-06-28T07:11:00,thc,7.79
2023-06-28T07:12:00,thc,7.80
2023-06-28T07:13:00,thc,7.79
2023-06-28T07:14:00,thc,7.76
2023-06-28T07:15:00,thc,7.63
2023-06-28T07:16:00,thc,7.63
2023-06-28T07:17:00,thc,7.60
2023-06-28T07:18:00,thc,7.70
2023-06-28T07:19:00,thc,7.45
2023-06-28T07:20:00,thc,7.13
2023-06-28T07:21:00,thc,7.13
2023-06-28T07:22:00,thc,7.11
2023-06-28T07:23:00,thc,7.08
2023-06-28T07:24:00,thc,7.18
2023-06-28T07:25:00,thc,7.17
2023-06-28T07:26:00,thc,7.16
2023-06-28T07:27:00,thc,7.17
2023-06-28T07:28:00,thc,7.17
2023-06-28T07:29:00,thc,7.32
2023-06-28T07:30:00,thc,7.21
2023-06-28T07:31:00,thc,7.20
2023-06-28T07:32:00,thc,7.20
2023-06-28T07:33:00,thc,7.26
2023-06-28T07:34:00,thc,7.46
2023-06-28T07:35:00,thc,7.59
2023-06-28T07:36:00,thc,7.37
2023-06-28T07:37:00,thc,7.46
2023-06-28T07:38:00,thc,7.37
2023-06-28T07:39:00,thc,7.37
2023-06-28T07:40:00,thc,7.38
2023-06-28T07:41:00,thc,7.33
2023-06-28T07:42:00,thc,7.33
2023-06-28T07:43:00,thc,7.34
2023-06-28T07:44:00,thc,7.31
2023-06-28T07:45:00,thc,7.30
2023-06-28T07:46:00,thc,7.30
2023-06-28T07:47:00,thc,7.32
2023-06-28T07:48:00,thc,7.43
2023-06-28T07:49:00,thc,7.32
2023-06-28T07:50:00,thc,7.32
2023-06-28T07:51:00,thc,7.33
2023-06-28T07:52:00,thc,7.31
2023-06-28T07:53:00,thc,7.30
2023-06-28T07:54:00,thc,10.34
2023-06-28T07:55:00,thc,7.49
2023-06-28T07:56:00,thc,6.70
2023-06-28T07:57:00,thc,6.60
2023-06-28T07:58:00,thc,6.75
2023-06-28T07:59:00,thc,4.15
2023-06-28T08:00:00,thc,4.31
2023-06-28T08:01:00,thc,7.45
2023-06-28T08:02:00,thc,7.51
2023-06-28T08:03:00,thc,7.38
2023-06-28T08:04:00,thc,7.36
2023-06-28T08:05:00,thc,7.34
2023-06-28T08:06:00,thc,7.79
2023-06-28T08:07:00,thc,7.49
2023-06-28T08:08:00,thc,7.48
2023-06-28T08:09:00,thc,7.36
2023-06-28T08:10:00,thc,7.32
2023-06-28T08:11:00,thc,7.32
2023-06-28T08:12:00,thc,7.30
2023-06-28T08:13:00,thc,7.33
2023-06-28T08:14:00,thc,7.38
2023-06-28T08:15:00,thc,7.54
2023-06-28T08:16:00,thc,7.46
2023-06-28T08:17:00,thc,7.57
2023-06-28T08:18:00,thc,10.36
2023-06-28T08:19:00,thc,11.38
2023-06-28T08:20:00,thc,8.75
2023-06-28T08:21:00,thc,6.86
2023-06-28T08:22:00,thc,6.85
2023-06-28T08:23:00,thc,6.84
2023-06-28T08:24:00,thc,6.84
2023-06-28T08:25:00,thc,6.82
2023-06-28T08:26:00,thc,6.83
2023-06-28T08:27:00,thc,6.84
2023-06-28T08:28:00,thc,10.37
2023-06-28T08:29:00,thc,10.23
2023-06-28T08:30:00,thc,10.21
2023-06-28T08:31:00,thc,10.19
2023-06-28T08:32:00,thc,10.19
2023-06-28T08:33:00,thc,10.30
2023-06-28T08:34:00,thc,13.35
2023-06-28T08:35:00,thc,13.09
2023-06-28T08:36:00,thc,12.78
2023-06-28T08:37:00,thc,12.92
2023-06-28T08:38:00,thc,12.86
2023-06-28T08:39:00,thc,10.79
2023-06-28T08:40:00,thc,7.84
2023-06-28T08:41:00,thc,6.75
2023-06-28T08:42:00,thc,8.78
2023-06-28T08:43:00,thc,9.60
2023-06-28T08:44:00,thc,8.77
2023-06-28T08:45:00,thc,10.41
2023-06-28T08:46:00,thc,10.39
2023-06-28T08:47:00,thc,9.01
2023-06-28T08:48:00,thc,10.45
2023-06-28T08:49:00,thc,10.37
2023-06-28T08:50:00,thc,11.74
2023-06-28T08:51:00,thc,11.45
2023-06-28T08:52:00,thc,11.78
2023-06-28T08:53:00,thc,7.44
2023-06-28T08:54:00,thc,8.44
2023-06-28T08:55:00,thc,8.49
2023-06-28T08:56:00,thc,7.48
2023-06-28T08:57:00,thc,7.41
2023-06-28T08:58:00,thc,6.05
2023-06-28T08:59:00,thc,3.85
2023-06-28T09:00:00,thc,3.84
2023-06-28T09:01:00,thc,6.58
2023-06-28T09:02:00,thc,6.64
2023-06-28T09:03:00,thc,6.77
2023-06-28T09:04:00,thc,6.84
2023-06-28T09:05:00,thc,6.93
2023-06-28T09:06:00,thc,7.14
2023-06-28T09:07:00,thc,6.92
2023-06-28T09:08:00,thc,10.16
2023-06-28T09:09:00,thc,10.05
2023-06-28T09:10:00,thc,10.28
2023-06-28T09:11:00,thc,10.57
2023-06-28T09:12:00,thc,8.61
2023-06-28T09:13:00,thc,7.48
2023-06-28T09:14:00,thc,7.44
2023-06-28T09:15:00,thc,7.44
2023-06-28T09:16:00,thc,7.47
2023-06-28T09:17:00,thc,4.94
2023-06-28T09:18:00,thc,4.09
2023-06-28T09:19:00,thc,4.05
2023-06-28T09:20:00,thc,4.04
2023-06-28T09:21:00,thc,4.28
2023-06-28T09:22:00,thc,4.06
2023-06-28T09:23:00,thc,4.04
2023-06-28T09:24:00,thc,4.08
2023-06-28T09:25:00,thc,4.11
2023-06-28T09:26:00,thc,7.14
2023-06-28T09:27:00,thc,7.39
2023-06-28T09:28:00,thc,7.29
2023-06-28T09:29:00,thc,7.40
2023-06-28T09:30:00,thc,7.25
2023-06-28T09:31:00,thc,7.35
2023-06-28T09:32:00,thc,7.36
2023-06-28T09:33:00,thc,7.35
2023-06-28T09:34:00,thc,7.27
2023-06-28T09:35:00,thc,5.18
2023-06-28T09:36:00,thc,4.32
2023-06-28T09:37:00,thc,4.28
2023-06-28T09:38:00,thc,4.38
2023-06-28T09:39:00,thc,3.90
2023-06-28T09:40:00,thc,3.98
2023-06-28T09:41:00,thc,3.93
2023-06-28T09:42:00,thc,3.86
2023-06-28T09:43:00,thc,3.98
2023-06-28T09:44:00,thc,3.76
2023-06-28T09:45:00,thc,3.80
2023-06-28T09:46:00,thc,3.94
2023-06-28T09:47:00,thc,7.22
2023-06-28T09:48:00,thc,7.31
2023-06-28T09:49:00,thc,7.31
2023-06-28T09:50:00,thc,7.22
2023-06-28T09:51:00,thc,7.33
2023-06-28T09:52:00,thc,7.68
2023-06-28T09:53:00,thc,7.69
2023-06-28T09:54:00,thc,7.34
2023-06-28T09:55:00,thc,7.35
2023-06-28T09:56:00,thc,4.86
2023-06-28T09:57:00,thc,3.98
2023-06-28T09:58:00,thc,4.00
2023-06-28T09:59:00,thc,4.06
2023-06-28T10:00:00,thc,3.93
2023-06-28T10:01:00,thc,4.08
2023-06-28T10:02:00,thc,3.77
2023-06-28T10:03:00,thc,3.98
2023-06-28T10:04:00,thc,4.03
2023-06-28T10:05:00,thc,3.93
2023-06-28T10:06:00,thc,4.06
2023-06-28T10:07:00,thc,7.26
2023-06-28T10:08:00,thc,7.50
2023-06-28T10:09:00,thc,7.60
2023-06-28T10:10:00,thc,7.75
2023-06-28T10:11:00,thc,7.83
2023-06-28T10:12:00,thc,10.98
2023-06-28T10:13:00,thc,10.52
2023-06-28T10:14:00,thc,10.25
2023-06-28T10:15:00,thc,14.38
2023-06-28T10:16:00,thc,11.70
2023-06-28T10:17:00,thc,8.22
2023-06-28T10:18:00,thc,8.10
2023-06-28T10:19:00,thc,8.14
2023-06-28T10:20:00,thc,8.15
2023-06-28T10:21:00,thc,8.16
2023-06-28T10:22:00,thc,8.14
2023-06-28T10:23:00,thc,9.72
2023-06-28T10:24:00,thc,9.71
2023-06-28T10:25:00,thc,9.72
2023-06-28T10:26:00,thc,8.21
2023-06-28T10:27:00,thc,8.16
2023-06-28T10:28:00,thc,8.16
2023-06-28T10:29:00,thc,8.15
2023-06-28T10:30:00,thc,11.72
2023-06-28T10:31:00,thc,11.59
2023-06-28T10:32:00,thc,11.44
2023-06-28T10:33:00,thc,11.43
2023-06-28T10:34:00,thc,11.42
2023-06-28T10:35:00,thc,11.45
2023-06-28T10:36:00,thc,11.38
2023-06-28T10:37:00,thc,11.61
2023-06-28T10:38:00,thc,9.12
2023-06-28T10:39:00,thc,8.02
2023-06-28T10:40:00,thc,4.00
2023-06-28T10:41:00,thc,4.01
2023-06-28T10:42:00,thc,8.20
2023-06-28T10:43:00,thc,8.00
2023-06-28T10:44:00,thc,8.01
2023-06-28T10:45:00,thc,8.03
2023-06-28T10:46:00,thc,3.92
2023-06-28T10:47:00,thc,3.92
2023-06-28T10:48:00,thc,6.93
2023-06-28T10:49:00,thc,7.90
2023-06-28T10:50:00,thc,7.93
2023-06-28T10:51:00,thc,12.39
2023-06-28T10:52:00,thc,7.73
2023-06-28T10:53:00,thc,7.62
2023-06-28T10:54:00,thc,7.62
2023-06-28T10:55:00,thc,11.61
2023-06-28T10:56:00,thc,11.62
2023-06-28T10:57:00,thc,11.62
2023-06-28T10:58:00,thc,7.58
2023-06-28T10:59:00,thc,5.07
2023-06-28T11:00:00,thc,4.17
2023-06-28T11:01:00,thc,9.70
2023-06-28T11:02:00,thc,9.67
2023-06-28T11:03:00,thc,9.67
2023-06-28T11:04:00,thc,4.20
2023-06-28T11:05:00,thc,4.19
2023-06-28T11:06:00,thc,8.21
2023-06-28T11:07:00,thc,9.55
2023-06-28T11:08:00,thc,8.17
2023-06-28T11:09:00,thc,5.62
2023-06-28T11:10:00,thc,4.17
2023-06-28T11:11:00,thc,4.16
2023-06-28T11:12:00,thc,4.17
2023-06-28T11:13:00,thc,4.10
2023-06-28T11:14:00,thc,4.10
2023-06-28T11:15:00,thc,3.93
2023-06-28T11:16:00,thc,3.92
2023-06-28T11:17:00,thc,3.81
2023-06-28T11:18:00,thc,3.80
2023-06-28T11:19:00,thc,3.82
2023-06-28T11:20:00,thc,3.82
2023-06-28T11:21:00,thc,3.79
2023-06-28T11:22:00,thc,3.69
2023-06-28T11:23:00,thc,6.14
2023-06-28T11:24:00,thc,6.06
2023-06-28T11:25:00,thc,10.21
2023-06-28T11:26:00,thc,10.19
2023-06-28T11:27:00,thc,10.20
2023-06-28T11:28:00,thc,10.20
2023-06-28T11:29:00,thc,8.10
2023-06-28T11:30:00,thc,3.92
2023-06-28T11:31:00,thc,3.90
2023-06-28T11:32:00,thc,3.86
2023-06-28T11:33:00,thc,3.86
2023-06-28T11:34:00,thc,3.87
2023-06-28T11:35:00,thc,3.86
2023-06-28T11:36:00,thc,3.81
2023-06-28T11:37:00,thc,3.82
2023-06-28T11:38:00,thc,3.72
2023-06-28T11:39:00,thc,3.94
2023-06-28T11:40:00,thc,3.74
2023-06-28T11:41:00,thc,3.72
2023-06-28T11:42:00,thc,3.72
2023-06-28T11:43:00,thc,3.80
2023-06-28T11:44:00,thc,3.79
2023-06-28T11:45:00,thc,3.77
2023-06-28T11:46:00,thc,3.76
2023-06-28T11:47:00,thc,3.75
2023-06-28T11:48:00,thc,3.77
2023-06-28T11:49:00,thc,3.77
2023-06-28T11:50:00,thc,3.77
2023-06-28T11:51:00,thc,3.77
2023-06-28T11:52:00,thc,3.83
2023-06-28T11:53:00,thc,3.82
2023-06-28T11:54:00,thc,3.82
2023-06-28T11:55:00,thc,3.77
2023-06-28T11:56:00,thc,3.78
2023-06-28T11:57:00,thc,3.81
2023-06-28T11:58:00,thc,3.80
2023-06-28T11:59:00,thc,3.80
2023-06-28T12:00:00,thc,3.85
2023-06-28T12:01:00,thc,4.02
2023-06-28T12:02:00,thc,4.00
2023-06-28T12:03:00,thc,3.99
2023-06-28T12:04:00,thc,7.14
2023-06-28T12:05:00,thc,6.77
2023-06-28T12:06:00,thc,6.76
2023-06-28T12:07:00,thc,6.72
2023-06-28T12:08:00,thc,6.72
2023-06-28T12:09:00,thc,6.63
2023-06-28T12:10:00,thc,3.88
2023-06-28T12:11:00,thc,3.87
2023-06-28T12:12:00,thc,3.70
2023-06-28T12:13:00,thc,3.68
2023-06-28T12:14:00,thc,3.68
2023-06-28T12:15:00,thc,3.69
2023-06-28T12:16:00,thc,3.55
2023-06-28T12:17:00,thc,3.56
2023-06-28T12:18:00,thc,3.58
2023-06-28T12:19:00,thc,3.57
2023-06-28T12:20:00,thc,3.54
2023-06-28T12:21:00,thc,3.69
2023-06-28T12:22:00,thc,5.37
2023-06-28T12:23:00,thc,5.33
2023-06-28T12:24:00,thc,3.68
2023-06-28T12:25:00,thc,3.74
2023-06-28T12:26:00,thc,3.70
2023-06-28T12:27:00,thc,3.79
2023-06-28T12:28:00,thc,3.72
2023-06-28T12:29:00,thc,6.60
2023-06-28T12:30:00,thc,6.68
2023-06-28T12:31:00,thc,6.66
2023-06-28T12:32:00,thc,6.67
2023-06-28T12:33:00,thc,6.67
2023-06-28T12:34:00,thc,6.66
2023-06-28T12:35:00,thc,6.48
2023-06-28T12:36:00,thc,3.90
2023-06-28T12:37:00,thc,3.88
2023-06-28T12:38:00,thc,3.84
2023-06-28T12:39:00,thc,3.79
2023-06-28T12:40:00,thc,3.79
2023-06-28T12:41:00,thc,3.77
2023-06-28T12:42:00,thc,3.83
2023-06-28T12:43:00,thc,3.82
2023-06-28T12:44:00,thc,4.05
2023-06-28T12:45:00,thc,3.87
2023-06-28T12:46:00,thc,3.85
2023-06-28T12:47:00,thc,6.02
2023-06-28T12:48:00,thc,6.07
2023-06-28T12:49:00,thc,5.91
2023-06-28T12:50:00,thc,5.93
2023-06-28T12:51:00,thc,5.90
2023-06-28T12:52:00,thc,6.42
2023-06-28T12:53:00,thc,6.46
2023-06-28T12:54:00,thc,6.71
2023-06-28T12:55:00,thc,6.63
2023-06-28T12:56:00,thc,6.61
2023-06-28T12:57:00,thc,3.89
2023-06-28T12:58:00,thc,3.86
2023-06-28T12:59:00,thc,3.86
2023-06-28T13:00:00,thc,6.78
2023-06-28T13:01:00,thc,6.79
2023-06-28T13:02:00,thc,6.74
2023-06-28T13:03:00,thc,6.74
2023-06-28T13:04:00,thc,6.63
2023-06-28T13:05:00,thc,6.62
2023-06-28T13:06:00,thc,6.63
2023-06-28T13:07:00,thc,6.67
2023-06-28T13:08:00,thc,6.67
2023-06-28T13:09:00,thc,6.64
2023-06-28T13:10:00,thc,6.53
2023-06-28T13:11:00,thc,6.51
2023-06-28T13:12:00,thc,6.53
2023-06-28T13:13:00,thc,6.50
2023-06-28T13:14:00,thc,6.50
2023-06-28T13:15:00,thc,6.52
2023-06-28T13:16:00,thc,6.53
2023-06-28T13:17:00,thc,9.60
2023-06-28T13:18:00,thc,9.52
2023-06-28T13:19:00,thc,9.33
2023-06-28T13:20:00,thc,9.30
2023-06-28T13:21:00,thc,9.28
2023-06-28T13:22:00,thc,9.30
2023-06-28T13:23:00,thc,6.51
2023-06-28T13:24:00,thc,6.49
2023-06-28T13:25:00,thc,6.69
2023-06-28T13:26:00,thc,6.51
2023-06-28T13:27:00,thc,6.48
2023-06-28T13:28:00,thc,6.50
2023-06-28T13:29:00,thc,6.65
2023-06-28T13:30:00,thc,6.63
2023-06-28T13:31:00,thc,6.63
2023-06-28T13:32:00,thc,6.61
2023-06-28T13:33:00,thc,6.59
2023-06-28T13:34:00,thc,7.03
2023-06-28T13:35:00,thc,6.86
2023-06-28T13:36:00,thc,6.90
2023-06-28T13:37:00,thc,6.70
2023-06-28T13:38:00,thc,6.65
2023-06-28T13:39:00,thc,6.87
2023-06-28T13:40:00,thc,8.12
2023-06-28T13:41:00,thc,8.17
2023-06-28T13:42:00,thc,8.17
2023-06-28T13:43:00,thc,6.66
2023-06-28T13:44:00,thc,6.67